Flag for U.S.A. Weather past 2 weeks in Aurora, Colorado, U.S.A.

Now
67 °F

Passing clouds.


Feels Like: 67 °F
Forecast: 59 / 85 °F
Wind: 9 mph from South

Location: Buckley Air Force Base

Current Time: Sep 19, 2014 at 8:24:58 AM

Latest Report: Sep 19, 2014 at 7:58 AM


Visibility: 10 mi

Pressure: 29.79 "Hg

Humidity: 32%

Dew point: 36 °F

Location of AuroraLocation

Historic Weather in Aurora — Graph

°F

Aurora temperature yesterday

Maximum temperature yesterday: 87 °F (at 4:58 PM)
Minimum temperature yesterday: 55 °F (at 6:58 AM)
Average temperature yesterday: 71 °F

Past Weeks' High & Low Weather Summary

 TemperatureHumidityPressure
High88 °F (Sep 17, 3:58 PM)100% (Sep 6, 4:58 AM)30.51 "Hg (Sep 6, 4:58 AM)
Low32 °F (Sep 12, 5:58 AM)14% (Sep 14, 1:58 PM)29.66 "Hg (Sep 9, 12:58 PM)
Average61 °F61%30.01 "Hg
* Reported Sep 4 6:58 AM — Sep 19 6:58 AM, Aurora, Weather by CustomWeather, © 2014

Note: Actual official high and low records may vary slightly from our data, if they occured in-between our weather recording intervals... More about our weather records

Advertising

Aurora weather history for previous 24 hours

 ConditionsComfort  
Time TempWeatherWind HumidityBarometerVisibility
6:58 AM
Sep 19
64 °FPassing clouds.15 mph33%29.77 "Hg10 mi
5:58 AM64 °FClear.15 mph35%29.74 "Hg10 mi
4:58 AM67 °FClear.17 mph27%29.72 "Hg10 mi
3:58 AM64 °FClear.16 mph33%29.72 "Hg10 mi
2:58 AM63 °FClear.16 mph35%29.74 "Hg10 mi
1:58 AM67 °FClear.15 mph32%29.75 "Hg10 mi
12:58 AM70 °FClear.16 mph29%29.75 "Hg10 mi
11:58 PM
Sep 18
68 °FClear.22 mph36%29.75 "Hg10 mi
10:58 PM71 °FClear.23 mph33%29.74 "Hg10 mi
9:58 PM72 °FClear.18 mph28%29.75 "Hg10 mi
8:58 PM73 °FClear.15 mph23%29.76 "Hg10 mi
7:58 PM75 °FPassing clouds.15 mph23%29.75 "Hg10 mi
6:58 PM78 °FPassing clouds.13 mph21%29.76 "Hg10 mi
5:58 PM84 °FPassing clouds.16 mph16%29.75 "Hg10 mi
4:58 PM87 °FPassing clouds.8 mph14%29.73 "Hg10 mi
3:58 PM87 °FPassing clouds.2 mph16%29.74 "Hg10 mi
2:58 PM87 °FPassing clouds.5 mph15%29.75 "Hg10 mi
1:58 PM86 °FScattered clouds.3 mph16%29.78 "Hg10 mi
12:58 PM84 °FScattered clouds.5 mph20%29.81 "Hg10 mi
11:58 AM81 °FPassing clouds.6 mph25%29.84 "Hg10 mi
8:58 AM67 °FPassing clouds.9 mph42%29.87 "Hg10 mi
Weather by CustomWeather, © 2014

See weather overviewHow to use our weather pages